Preview of NWS' New Version of Forecast
This preview is not operational and should not be used for support decisions.

Regional Weather Roundup (RWR)

Issued by National Weather Service (NWS)

                            
000
ASUS43 KDMX 191801
RWRIA 

WEATHER ROUNDUP FOR IOWA
NATIONAL WEATHER SERVICE DES MOINES IA
100 PM CDT SUN MAY 19 2019

NOTE: "FAIR" INDICATES FEW OR NO CLOUDS BELOW 12,000 FEET WITH NO
SIGNIFICANT WEATHER AND/OR OBSTRUCTIONS TO VISIBILITY.

* - THESE STATIONS ARE NOT NWS STATIONS...THUS NOT UNDER NWS
QUALITY CONTROL.  THEY ALSO DO NOT REPORT WEATHER SUCH 
AS PRECIPITATION OR FOG.  

IAZ001>003-012>014-020>022-031>034-043>046-191900-
   NORTHWEST IOWA
  
CITY           SKY/WX    TMP DP  RH WIND       PRES   REMARKS
CARROLL *      CLOUDY    52  48  87 NW15G24   29.75R                  
CHEROKEE *     CLOUDY    49  47  92 NW10G16   29.77R                  
DENISON *      CLOUDY    50  46  87 NW14G25   29.81R                  
LE MARS *      CLOUDY    48  46  93 NW13G25   29.80R FOG              
SHELDON *      CLOUDY    46  46 100 N13       29.76R FOG              
SIOUX CITY     CLOUDY    51  45  79 NW21G29   29.80S                  
6HR MIN TEMP:  48; 6HR MAX TEMP:  51; 6HR PCP: TRACE;                

SPENCER        CLOUDY    50  43  77 N13       29.75R                  
6HR MIN TEMP:  48; 6HR MAX TEMP:  52; 6HR PCP:  0.02;                

STORM LAKE *     N/A     48  48 100 NW18      29.73R                  
$$
 
IAZ055>058-069>071-079>083-090>094-191900-
   SOUTHWEST IOWA
  
CITY           SKY/WX    TMP DP  RH WIND       PRES   REMARKS
ATLANTIC *     CLOUDY    54  50  87 W18G24    29.79R                  
AUDUBON *      CLOUDY    52  46  82 CALM      29.79R                  
CLARINDA *     CLOUDY    55  50  82 NW12G21   29.84R                  
COUNCIL BLFS * CLOUDY    54  48  82 NW22G28   29.80R                  
CRESTON *      CLOUDY    54  50  87 W18G25    29.78R                  
HARLAN  *      CLOUDY    54  48  82 NW20G25   29.80R                  
LAMONI         CLOUDY    57  49  74 W20G30    29.78R                  
6HR MIN TEMP:  57; 6HR MAX TEMP:  59; 6HR PCP:  0.07;                

RED OAK *      CLOUDY    55  48  76 NW15      29.82R                  
SHENANDOAH *   CLOUDY    57  48  72 W10G22    29.82R                  
$$
 
IAZ047>049-059>061-072>074-084-191900-
   CENTRAL IOWA
  
CITY           SKY/WX    TMP DP  RH WIND       PRES   REMARKS
AMES           CLOUDY    56  49  77 NW14      29.70R                  
6HR MIN TEMP:  53; 6HR MAX TEMP:  57; 6HR PCP: TRACE;                

ANKENY *       CLOUDY    57  50  77 MISG      29.72R                  
BOONE *        CLOUDY    55  54  94 W16       29.71R                  
CHARITON *     CLOUDY    61  55  82 W17       29.73R                  
DES MOINES     CLOUDY    56  50  80 W16       29.72R                  
6HR MIN TEMP:  56; 6HR MAX TEMP:  60; 6HR PCP: TRACE;                

GRINNELL*      CLOUDY    58  54  87 W16       29.70R                  
KNOXVILLE *    CLOUDY    61  61 100 W14       29.70S                  
MARSHALLTOWN   CLOUDY    53  50  89 NW15      29.68R                  
6HR MIN TEMP:  50; 6HR MAX TEMP:  54;                                

NEWTON *       PTSUNNY   57  55  94 W17       29.69R                  
PELLA *        CLOUDY    60  54  80 W14G22    29.71R                  
PERRY *        CLOUDY    55  53  92 W17       29.74R                  
$$
 
IAZ004>006-015-016-023>025-035-036-191900-
   NORTH CENTRAL IOWA
  
CITY           SKY/WX    TMP DP  RH WIND       PRES   REMARKS
ALGONA *       CLOUDY    48  48 100 N9G15     29.70R                  
CLARION *      CLOUDY    50  46  87 NW14      29.70R                  
ESTHERVILLE    CLOUDY    46  41  82 N13       29.73R                  
6HR MIN TEMP:  44; 6HR MAX TEMP:  47; 6HR PCP:  0.09;                

FORT DODGE *   CLOUDY    50  46  86 N9        29.73R                  
MASON CITY     CLOUDY    53  47  79 NW14G26   29.68S                  
6HR MIN TEMP:  46; 6HR MAX TEMP:  53; 6HR PCP: TRACE;                

FOREST CITY *  CLOUDY    50  45  81 N13G21    29.68S                  
IOWA FALLS *   CLOUDY    53  49  86 NW18      29.69S                  
$$

IAZ007>011-017>019-026>030-037>042-050>054-066-191900-
   NORTHEAST IOWA
  
CITY           SKY/WX    TMP DP  RH WIND       PRES   REMARKS
CEDAR RAPIDS   CLOUDY    58  55  90 W15       29.65R                  
6HR MIN TEMP:  55; 6HR MAX TEMP:  60; 6HR PCP: TRACE;                

CHARLES CITY *   N/A     52  46  82 NW16G22   29.66R                  
CLINTON *      CLOUDY    65  60  84 W24       29.62R                  
DECORAH *        N/A     50  45  81 W9G23     29.59R                  
DUBUQUE        CLOUDY    57  51  80 W23G30    29.61R                  
6HR MIN TEMP:  54; 6HR MAX TEMP:  64; 6HR PCP:  0.02;                

MONTICELLO *   CLOUDY    57  54  88 W15G22    29.63S                  
OELWEIN *      CLOUDY    54  50  87 W21G26    29.65R                  
WATERLOO       CLOUDY    54  47  77 NW12      29.65R                  
6HR MIN TEMP:  50; 6HR MAX TEMP:  54;                                

$$
 
IAZ064-065-067-068-078-191900-
   EAST CENTRAL IOWA
  
CITY           SKY/WX    TMP DP  RH WIND       PRES   REMARKS
IOWA CITY      CLOUDY    62  56  80 W15G24    29.67R                  
6HR MIN TEMP:  59; 6HR MAX TEMP:  63; 6HR PCP:  0.11;                

MT. PLEASANT * CLOUDY    66  61  82 W13G18    29.68R                  
MUSCATINE *    CLOUDY    68  59  73 NW17G24   29.66R                  
QUAD CITIES    CLOUDY    66  58  75 W13G26    29.63R                  
6HR MIN TEMP:  63; 6HR MAX TEMP:  69; 6HR PCP:  0.30;                

$$
 
IAZ062-063-075>077-085>089-095>099-191900-
   SOUTHEAST IOWA
  
CITY           SKY/WX    TMP DP  RH WIND       PRES   REMARKS
BURLINGTON     PTSUNNY   68  59  73 W14       29.66R                  
6HR MIN TEMP:  60; 6HR MAX TEMP:  68; 6HR PCP:  0.18;                

FAIRFIELD *    CLOUDY    64  57  77 W18G30    29.67R                  
FORT MADISON * MOSUNNY   66  63  88 W13       29.69R                  
KEOKUK *       PTSUNNY   68  59  73 W15       29.68R                  
OSKALOOSA *    CLOUDY    61  55  80 W21       29.70R                  
CENTERVILLE *  FAIR      59  55  88 W17       29.75R                  
OTTUMWA        CLOUDY    61  55  81 W14G24    29.70R                  
6HR MIN TEMP:  59; 6HR MAX TEMP:  66; 6HR PCP:  0.02;                

WASHINGTON *   CLOUDY    66  66 100 W15G22    29.67R                  
$$

ABBREVIATIONS USED IN REMARKS
   TC - TEMPERATURES IN CELSIUS
  WCI - WIND CHILL INDEX
   HX - HEAT INDEX
  VSB - VISIBILITY  
$$